Location: Montbazon
(47.2835°N, 0.6999°E)
Time: 06:17:58
(UTC+00:00)

USA 234 - Pass Details

Date: 08 November 2025
Orbit: 1100 x 1107 km, 123.0° (Epoch: 02 December)

Event Time Altitude Azimuth Distance (km) Brightness Sun altitude
Rises 05:33:39 0° 166° (SSE) 3,913 6.5 -13.4°
Reaches altitude 10° 05:36:35 10° 178° (S) 2,958 5.7 -12.9°
Maximum altitude 05:41:55 27° 234° (SW) 1,998 4.3 -12.0°
Enters shadow 05:46:14 14° 282° (WNW) 2,665 4.6 -11.3°
